[ hide orbit diagram ]
For accurate long-term ephemerides, please instead use our Horizons system.This orbit viewer was implemented using two-body methods, and hence should not be used for determining accurate long-term trajectories (over several years or decades) or planetary encounter circumstances.
Orbital Elements at Epoch 2459000.5 (2020-May-31.0) TDB
Reference: JPL 34 (heliocentric ecliptic J2000)
Element | Value | Uncertainty (1-sigma) | Units |
e | .09986958318531339 | 2.8032e-08 | |
a | 2.249294888344977 | 7.483e-09 | au |
q | 2.024658745385108 | 6.358e-08 | au |
i | 3.919843113712884 | 3.2812e-06 | deg |
node | 213.5585415059943 | 4.8895e-05 | deg |
peri | 208.4013044465959 | 5.2377e-05 | deg |
M | 194.4140820001837 | 2.0218e-05 | deg |
tp | 2459567.246596404982 (2021-Dec-18.74659640) | 7.0623e-05 | TDB |
period | 1232.162596737362 3.37 | 6.1488e-06 1.683e-08 | d yr |
n | .2921692323344683 | 1.458e-09 | deg/d |
Q | 2.473931031304846 | 8.2304e-09 | au |
|
| | Orbit Determination Parameters
Additional Information
|
[ show covariance matrix ]
Physical Parameter Table
Parameter |
Symbol |
Value |
Units |
Sigma |
Reference |
Notes |
absolute magnitude |
H |
14.2 |
|
n/a |
MPO458927 |
|
rotation period |
rot_per |
6.849 |
h |
n/a |
LCDB (Rev. 2020-October); Warner et al., 2009 |
Result based on less than full coverage, so that the period may be wrong by 30 percent or so. Published Reference List: [Waszczak, A.; Chang, C.-K.; Ofeck, E.O.; Laher, F.; et al. (2015) Astron. J. 150, A75.] [Pal, A.; Szakats, R.; Kiss, C.; Bodi, A.; et al. (2019) Ap. J. Supl. Ser. 247, id.26.] |
|
10101 Fourier | Discovered 1992 Jan. 30 by E. W. Elst at the European Southern Observatory. |
Named in memory of Jean-Baptiste-Joseph Fourier (1768-1830), French mathematician who exerted a strong influence on mathematical physics through his Théorie analytique de la chaleur (1822), wherein he showed that the conduction of heat in solid bodies may be analyzed in terms of infinite mathematical series, the so-called "Fourier series". In 1798 he accompanied Napoleon to Egypt, where he was engaged, until 1801, in extensive research on Egyptian antiquities. |
NOTE: some special characters may not display properly (any characters within {} are an attempt to place the proper accent above a character) |
Reference: 19990728/MPCPages.arc | Last Updated: 2010-06-11 |
|
[ show close-approach data ]
Alternate Designations
1992 BM2 = 1977 SD1 = 1987 SV18 = 1994 VN7 |
|
|